Regional Weather Roundup
Issued by NWS Cleveland, OH

Home | Current Version | Previous Version | Text Only | Print | Product List | Glossary Off
Versions: 1 2 3 4 5 6 7 8 9 10 11 12 13 14 15 16 17 18 19 20 21 22 23 24 25 26 27 28 29 30 31 32 33 34 35 36 37 38 39 40 41 42 43 44 45 46 47 48 49 50

781
ASUS41 KCLE 061500
RWRCLE
OHIO REGIONAL WEATHER ROUNDUP
NATIONAL WEATHER SERVICE WILMINGTON, OH
1100 AM EDT FRI MAY 06 2016

NOTE: "FAIR" INDICATES FEW OR NO CLOUDS BELOW 12,000 FEET WITH NO
SIGNIFICANT WEATHER AND/OR OBSTRUCTIONS TO VISIBILITY.

OHZ001>008-015>018-024>027-034-035-043-044-061600-
   NORTHWEST OHIO

CITY           SKY/WX    TMP DP  RH WIND       PRES   REMARKS
DEFIANCE       FAIR      62  42  47 VRB5      30.00R
FINDLAY        FAIR      63  39  41 N8        29.97S
TOLEDO EXPRESS FAIR      62  38  40 N7        29.98S
TOLEDO EXEC    FAIR      63  42  46 NE5       29.98S
LIMA           FAIR      59  40  49 N6        29.98S
$$

OHZ009>014-019>023-028>033-038-089-061600-
   NORTHEAST OHIO

CITY           SKY/WX    TMP DP  RH WIND       PRES   REMARKS
CLE-HOPKINS    FAIR      57  43  59 N12       29.95S
CLE-LAKEFRONT  FAIR      53  45  74 NW8       29.93R
CUY CO. ARPT   MOSUNNY   57  46  67 N9        29.93R
LORAIN-ELYRIA  FAIR      57  43  59 N10       29.95R
ASHTABULA      FAIR      58  42  55 N8        29.90R
AKRON-CANTON   FAIR      61  42  49 N13G18    29.89S
WOOSTER        NOT AVBL
MANSFIELD      FAIR      59  43  55 N12       29.94S
YOUNGSTOWN     PTSUNNY   61  43  51 NW10      29.87R
$$

OHZ042-051>053-060>062-070>072-077>081-061600-
  SOUTHWEST OHIO

CITY           SKY/WX    TMP DP  RH WIND       PRES   REMARKS
CINC-COVINGTON FAIR      60  44  55 W3        29.99R
CINC-LUNKEN    FAIR      63  44  50 VRB7      29.99R
HAMILTON       FAIR      63  43  48 N8        30.00R
DAYTON         NOT AVBL
WRIGHT-PAT AFB FAIR      61  44  52 N8        29.97S
DAYTON GENERAL FAIR      62  41  46 N9        29.98R
WILMINGTON     FAIR      61  44  53 N14       29.96S
$$

OHZ036-037-039>041-045>050-054>059-063>069-073>076-082>088-061600-
  CENTRAL AND SOUTHEAST OHIO

CITY           SKY/WX    TMP DP  RH WIND       PRES   REMARKS
COLUMBUS       FAIR      62  41  46 N15G22    29.93S
OSU AIRPORT    FAIR      61  41  47 N10       29.94S
BOLTON FIELD   SUNNY     61  43  51 N13G18    29.95S
RICKENBACK AFB NOT AVBL
NEWARK         FAIR      66  40  38 N13       29.91S
MARION         FAIR      61  42  49 N12       29.96S
LANCASTER      FAIR      63  45  51 NW8G20    29.93S
ZANESVILLE     FAIR      65  43  44 NW15      29.89S
NEW PHILLY     FAIR      61  43  51 N9        29.89S
$$




USA.gov is the U.S. government's official web portal to all federal, state and local government web resources and services.